Location: Castelbiague
(43.0361°N, 0.9246°E)
Time: 01:05:52
(UTC+00:00)

Cosmos 2322 Rocket - Visible Passes

Search period start: 23 October 2021 00:00
Search period end: 02 November 2021 00:00
Orbit: 833 x 850 km, 71.0° (Epoch: 22 October)

Date Brightness Start Highest point End Pass type
(mag) Time Alt. Az. Time Alt. Az. Time Alt. Az.
23 Oct 3.2 03:29:37 21° N 03:33:01 43° ENE 03:38:25 10° SE visible
23 Oct 3.0 05:12:03 10° NW 05:16:50 29° WSW 05:21:36 10° SSW visible
23 Oct 2.1 18:19:29 10° SSW 18:25:04 74° ESE 18:30:41 10° NNE visible
23 Oct 4.5 20:05:43 10° W 20:09:43 20° NW 20:13:46 10° N visible
24 Oct 3.3 03:16:56 38° NNE 03:17:57 41° ENE 03:23:18 10° SE visible
24 Oct 2.9 04:58:54 19° WNW 05:01:49 30° WSW 05:06:40 10° SSW visible
24 Oct 2.1 18:04:28 10° SSW 18:10:01 70° ESE 18:15:37 10° NNE visible
24 Oct 4.5 19:50:30 10° W 19:54:37 21° NW 19:58:46 10° N visible
25 Oct 3.6 03:04:18 34° E 03:04:18 34° E 03:08:10 10° SE visible
25 Oct 2.8 04:46:15 31° W 04:46:47 32° WSW 04:51:43 10° SSW visible
25 Oct 2.2 17:49:26 10° SSW 17:54:59 66° ESE 18:00:33 10° NNE visible
25 Oct 4.4 19:35:18 10° W 19:39:32 21° NW 19:43:47 10° N visible
26 Oct 4.4 02:51:36 17° ESE 02:51:36 17° ESE 02:53:03 10° SE visible
26 Oct 3.2 04:33:33 27° SW 04:33:33 27° SW 04:36:46 10° SSW visible
26 Oct 2.2 17:34:25 10° S 17:39:56 63° ESE 17:45:29 10° NNE visible
26 Oct 4.4 19:20:07 10° W 19:24:27 22° NW 19:28:48 10° N visible
27 Oct 4.1 04:20:44 15° SSW 04:20:44 15° SSW 04:21:49 10° S visible
27 Oct 2.3 17:19:24 10° S 17:24:53 59° ESE 17:30:25 10° NNE visible
27 Oct 4.3 19:04:55 10° WSW 19:09:21 23° NW 19:13:48 10° N visible
28 Oct 4.3 18:49:45 10° WSW 18:54:16 24° NW 18:58:48 10° N visible
29 Oct 4.2 18:34:34 10° WSW 18:39:10 25° NW 18:43:48 10° N visible
30 Oct 4.1 18:19:24 10° WSW 18:24:05 26° NW 18:28:47 10° N visible
31 Oct 4.1 18:04:14 10° WSW 18:08:59 28° NW 18:13:47 10° N visible
01 Nov 4.0 17:49:05 10° WSW 17:53:54 29° NW 17:58:46 10° N visible
